• In Italy
  • List of Countries
  • For 7 days
  • Water Temperature
  • Satellite Maps
  • Weather Map
  • Weather Widgets
  • user-avatar
    Login

    Hourly Weather Kalgoorlie

    Today, 17 October, Wednesday

    Time Temperature Precipitation Wind Pressure Humidity
    00:00 +20°C° 0 mm 6 mps 732 mmHg 39%
    01:00 +20°C° 0 mm 6 mps 732 mmHg 39%
    02:00 +19°C° 0 mm 6 mps 731 mmHg 39%
    03:00 +17°C° 0 mm 6 mps 731 mmHg 40%
    04:00 +17°C° 0 mm 6 mps 731 mmHg 41%
    05:00 +16°C° 0 mm 6 mps 731 mmHg 42%
    06:00 +18°C° 0 mm 7 mps 731 mmHg 40%
    07:00 +20°C° 0 mm 7 mps 731 mmHg 37%
    08:00 +21°C° 0 mm 8 mps 732 mmHg 38%
    09:00 +23°C° 0 mm 8 mps 731 mmHg 34%
    10:00 +26°C° 0 mm 8 mps 731 mmHg 29%
    11:00 +28°C° 0 mm 7 mps 730 mmHg 25%
    12:00 +29°C° 0 mm 7 mps 730 mmHg 23%
    13:00 +30°C° 0 mm 6 mps 729 mmHg 21%
    14:00 +32°C° 0 mm 7 mps 728 mmHg 19%
    15:00 +30°C° 0 mm 6 mps 727 mmHg 19%
    16:00 +30°C° 0 mm 6 mps 727 mmHg 19%
    17:00 +30°C° 0 mm 6 mps 727 mmHg 18%
    18:00 +29°C° 0 mm 6 mps 726 mmHg 20%
    19:00 +28°C° 0 mm 6 mps 726 mmHg 21%
    20:00 +27°C° 0 mm 6 mps 725 mmHg 22%
    21:00 +27°C° 0 mm 7 mps 724 mmHg 21%
    22:00 +26°C° 0 mm 9 mps 724 mmHg 21%
    23:00 +26°C° 0 mm 10 mps 723 mmHg 21%

    Tomorrow, 18 October, Thursday

    Time Temperature Precipitation Wind Pressure Humidity
    00:00 +26°C° 0 mm 9 mps 723 mmHg 21%
    01:00 +24°C° 0 mm 9 mps 722 mmHg 22%
    02:00 +24°C° 0 mm 8 mps 722 mmHg 22%
    03:00 +23°C° 0 mm 7 mps 722 mmHg 25%
    04:00 +22°C° 0 mm 6 mps 722 mmHg 27%
    05:00 +21°C° 0 mm 4 mps 722 mmHg 30%
    06:00 +22°C° 0 mm 5 mps 722 mmHg 32%
    07:00 +22°C° 0 mm 5 mps 723 mmHg 34%
    08:00 +23°C° 0 mm 5 mps 723 mmHg 35%
    09:00 +26°C° 0 mm 6 mps 723 mmHg 32%
    10:00 +27°C° 0 mm 7 mps 723 mmHg 28%
    11:00 +28°C° 0 mm 8 mps 722 mmHg 24%
    12:00 +28°C° 0 mm 10 mps 722 mmHg 26%
    13:00 +28°C° 0 mm 11 mps 722 mmHg 28%
    14:00 +28°C° 0 mm 12 mps 722 mmHg 30%
    15:00 +24°C° 0 mm 12 mps 722 mmHg 37%
    16:00 +22°C° 0 mm 12 mps 723 mmHg 44%
    17:00 +18°C° 0 mm 11 mps 723 mmHg 52%
    18:00 +17°C° 0 mm 11 mps 724 mmHg 51%
    19:00 +16°C° 0 mm 11 mps 725 mmHg 50%
    20:00 +14°C° 0 mm 11 mps 725 mmHg 49%
    21:00 +14°C° 0 mm 10 mps 726 mmHg 50%
    22:00 +13°C° 0 mm 10 mps 726 mmHg 51%
    23:00 +12°C° 0 mm 10 mps 727 mmHg 52%

    Day after tomorrow, 19 October, Friday

    Time Temperature Precipitation Wind Pressure Humidity
    00:00 +12°C° 0 mm 9 mps 727 mmHg 54%
    01:00 +11°C° 0 mm 9 mps 727 mmHg 56%
    02:00 +10°C° 0 mm 9 mps 727 mmHg 59%
    03:00 +10°C° 0 mm 8 mps 728 mmHg 62%
    04:00 +9°C° 0 mm 7 mps 729 mmHg 66%
    05:00 +9°C° 0 mm 7 mps 729 mmHg 70%
    06:00 +10°C° 0 mm 7 mps 730 mmHg 64%
    07:00 +11°C° 0 mm 7 mps 731 mmHg 58%
    08:00 +11°C° 0 mm 8 mps 732 mmHg 52%
    09:00 +14°C° 0 mm 7 mps 732 mmHg 45%
    10:00 +15°C° 0 mm 7 mps 732 mmHg 38%
    11:00 +17°C° 0 mm 6 mps 732 mmHg 31%
    12:00 +19°C° 0 mm 6 mps 732 mmHg 29%
    13:00 +20°C° 0 mm 6 mps 731 mmHg 26%
    14:00 +21°C° 0 mm 5 mps 731 mmHg 24%
    15:00 +21°C° 0 mm 5 mps 731 mmHg 24%
    16:00 +21°C° 0 mm 5 mps 731 mmHg 24%
    17:00 +21°C° 0 mm 4 mps 731 mmHg 24%
    18:00 +20°C° 0 mm 3 mps 732 mmHg 27%
    19:00 +19°C° 0 mm 3 mps 732 mmHg 29%
    20:00 +19°C° 0 mm 2 mps 733 mmHg 31%
    21:00 +18°C° 0 mm 2 mps 733 mmHg 33%
    22:00 +17°C° 0 mm 2 mps 733 mmHg 35%
    23:00 +17°C° 0 mm 2 mps 734 mmHg 37%

    20 October, Saturday

    Time Temperature Precipitation Wind Pressure Humidity
    00:00 +16°C° 0 mm 2 mps 733 mmHg 40%
    01:00 +15°C° 0 mm 2 mps 733 mmHg 43%
    02:00 +15°C° 0 mm 2 mps 732 mmHg 46%
    03:00 +14°C° 0 mm 2 mps 732 mmHg 47%
    04:00 +14°C° 0 mm 2 mps 732 mmHg 49%
    05:00 +13°C° 0 mm 2 mps 732 mmHg 51%
    06:00 +15°C° 0 mm 2 mps 732 mmHg 45%
    07:00 +17°C° 0 mm 2 mps 733 mmHg 40%
    08:00 +18°C° 0 mm 2 mps 733 mmHg 34%
    09:00 +20°C° 0 mm 3 mps 733 mmHg 31%
    10:00 +22°C° 0 mm 4 mps 732 mmHg 27%
    11:00 +25°C° 0 mm 5 mps 732 mmHg 23%
    12:00 +26°C° 0 mm 5 mps 731 mmHg 22%
    13:00 +27°C° 0 mm 6 mps 731 mmHg 20%
    14:00 +28°C° 0 mm 6 mps 730 mmHg 19%
    15:00 +28°C° 0 mm 6 mps 729 mmHg 19%
    16:00 +28°C° 0 mm 6 mps 729 mmHg 19%
    17:00 +28°C° 0 mm 6 mps 729 mmHg 18%
    18:00 +27°C° 0 mm 5 mps 729 mmHg 21%
    19:00 +26°C° 0 mm 4 mps 729 mmHg 23%
    20:00 +25°C° 0 mm 3 mps 729 mmHg 25%
    21:00 +24°C° 0 mm 3 mps 729 mmHg 27%
    22:00 +22°C° 0 mm 3 mps 729 mmHg 29%
    23:00 +22°C° 0 mm 3 mps 729 mmHg 31%

    21 October, Sunday

    Time Temperature Precipitation Wind Pressure Humidity
    00:00 +20°C° 0 mm 4 mps 728 mmHg 37%
    01:00 +19°C° 0 mm 4 mps 728 mmHg 43%
    02:00 +17°C° 0 mm 5 mps 728 mmHg 49%
    03:00 +16°C° 0 mm 5 mps 728 mmHg 55%
    04:00 +15°C° 0 mm 5 mps 728 mmHg 61%
    05:00 +14°C° 0 mm 5 mps 728 mmHg 68%
    06:00 +15°C° 0 mm 5 mps 728 mmHg 63%
    07:00 +16°C° 0 mm 6 mps 729 mmHg 58%
    08:00 +17°C° 0 mm 6 mps 729 mmHg 53%
    09:00 +20°C° 0 mm 7 mps 729 mmHg 45%
    10:00 +22°C° 0 mm 8 mps 729 mmHg 38%
    11:00 +24°C° 0 mm 8 mps 728 mmHg 31%
    12:00 +26°C° 0 mm 9 mps 728 mmHg 29%
    13:00 +27°C° 0 mm 9 mps 727 mmHg 27%
    14:00 +27°C° 0 mm 10 mps 727 mmHg 25%
    15:00 +26°C° 0 mm 10 mps 727 mmHg 29%
    16:00 +26°C° 0 mm 10 mps 727 mmHg 33%
    17:00 +24°C° 0 mm 10 mps 727 mmHg 37%
    18:00 +22°C° 0 mm 9 mps 728 mmHg 41%
    19:00 +21°C° 0 mm 8 mps 729 mmHg 45%
    20:00 +20°C° 0 mm 8 mps 729 mmHg 49%
    21:00 +18°C° 0 mm 8 mps 730 mmHg 48%
    22:00 +17°C° 0 mm 8 mps 730 mmHg 48%
    23:00 +16°C° 0 mm 8 mps 730 mmHg 47%

    22 October, Monday

    Time Temperature Precipitation Wind Pressure Humidity
    00:00 +15°C° 0 mm 8 mps 730 mmHg 50%
    01:00 +14°C° 0 mm 7 mps 731 mmHg 52%
    02:00 +11°C° 0 mm 7 mps 731 mmHg 55%
    03:00 +11°C° 0 mm 7 mps 731 mmHg 56%
    04:00 +10°C° 0 mm 7 mps 731 mmHg 57%
    05:00 +9°C° 0 mm 6 mps 732 mmHg 58%
    06:00 +10°C° 0 mm 6 mps 732 mmHg 54%
    07:00 +11°C° 0 mm 6 mps 733 mmHg 50%
    08:00 +13°C° 0 mm 6 mps 734 mmHg 47%
    09:00 +14°C° 0 mm 5 mps 733 mmHg 41%
    10:00 +16°C° 0 mm 5 mps 733 mmHg 36%
    11:00 +18°C° 0 mm 4 mps 733 mmHg 31%
    12:00 +19°C° 0 mm 4 mps 732 mmHg 28%
    13:00 +20°C° 0 mm 4 mps 732 mmHg 25%
    14:00 +21°C° 0 mm 4 mps 732 mmHg 22%
    15:00 +21°C° 0 mm 4 mps 732 mmHg 22%
    16:00 +22°C° 0 mm 4 mps 732 mmHg 21%
    17:00 +22°C° 0 mm 3 mps 732 mmHg 21%
    18:00 +21°C° 0 mm 3 mps 732 mmHg 23%
    19:00 +20°C° 0 mm 3 mps 733 mmHg 25%
    20:00 +19°C° 0 mm 3 mps 733 mmHg 27%
    21:00 +18°C° 0 mm 4 mps 733 mmHg 33%
    22:00 +16°C° 0 mm 5 mps 733 mmHg 39%
    23:00 +15°C° 0 mm 7 mps 733 mmHg 46%
    Show more